Location: Shenandoah County Park
(38.9356°N, 78.4524°W)
Time: 19:09:26
(UTC-05:00)

N. Korean satellite - Pass Details

Date: 04 December 2021
Orbit: 447 x 490 km, 97.3° (Epoch: 26 January)

Event Time Altitude Azimuth Distance (km) Brightness Sun altitude
Rises 04:33:13 0° 32° (NNE) 2,456 10.5 -31.1°
Reaches altitude 10° 04:35:58 10° 57° (ENE) 1,576 9.7 -30.5°
Maximum altitude 04:37:57 15° 93° (E) 1,310 9.5 -30.2°
Drops below altitude 10° 04:39:55 10° 130° (SE) 1,569 9.8 -29.8°
Sets 04:42:38 0° 155° (SSE) 2,436 10.5 -29.3°
